Location: 5810 Zion Rd, Cleves, OH 45002, USA
(39.1922°N, 84.7113°W)
Time: 04:17:36
(UTC-05:00)

SR - All Passes

Search period start: 12 December 2019 00:00
Search period end: 22 December 2019 00:00
Orbit: 573 x 882 km, 66.7° (Epoch: 11 December)

Date Brightness Start Highest point End Pass type
(mag) Time Alt. Az. Time Alt. Az. Time Alt. Az.
12 Dec - 08:19:17 10° SSE 08:23:28 23° ESE 08:27:52 10° NE daylight
12 Dec - 09:59:49 10° SW 10:05:09 51° NW 10:10:51 10° NNE daylight
12 Dec - 11:47:26 10° NW 11:48:45 11° NW 11:50:05 10° NNW daylight
12 Dec - 17:01:04 10° N 17:05:03 18° NE 17:08:53 10° E daylight
12 Dec - 18:42:05 10° NNW 18:47:58 84° WSW 18:53:25 10° SSE visible
12 Dec - 20:28:08 10° W 20:29:01 10° W 20:29:53 10° WSW visible
13 Dec - 07:33:08 10° ESE 07:34:19 11° E 07:35:32 10° E daylight
13 Dec - 09:09:57 10° SSW 09:15:24 86° ESE 09:21:16 10° NNE daylight
13 Dec - 10:54:34 10° W 10:58:20 18° NW 11:02:15 10° N daylight
13 Dec - 16:13:06 10° NNE 16:14:39 11° NE 16:16:10 10° NE daylight
13 Dec - 17:52:30 10° NNW 17:58:13 52° ENE 18:03:34 10° SE visible
13 Dec - 19:35:32 10° NW 19:39:52 23° WSW 19:44:01 10° SSW visible
14 Dec - 08:20:47 10° S 08:25:52 43° ESE 08:31:20 10° NE daylight
14 Dec - 10:03:18 10° WSW 10:08:09 30° NW 10:13:17 10° N daylight
14 Dec - 17:03:11 10° N 17:08:15 29° NE 17:13:04 10° ESE daylight
14 Dec - 18:45:04 10° NW 18:50:33 45° WSW 18:55:41 10° S visible
15 Dec - 07:32:30 10° SSE 07:36:34 22° ESE 07:40:51 10° ENE daylight
15 Dec - 09:12:49 10° SW 09:18:11 54° WNW 09:23:57 10° NNE daylight
15 Dec - 10:59:57 10° NW 11:01:44 11° NW 11:03:31 10° NNW daylight
15 Dec - 16:14:14 10° N 16:18:03 17° NE 16:21:44 10° E daylight
15 Dec - 17:55:10 10° NNW 18:01:02 88° WSW 18:06:28 10° SSE visible
15 Dec - 19:40:34 10° W 19:42:08 11° W 19:43:40 10° WSW visible
16 Dec - 08:23:00 10° SSW 08:28:28 81° ESE 08:34:20 10° NNE daylight
16 Dec - 10:07:25 10° W 10:11:21 19° NW 10:15:25 10° N daylight
16 Dec - 15:26:39 10° NNE 15:27:38 10° NE 15:28:37 10° NE daylight
16 Dec - 17:05:36 10° NNW 17:11:16 49° NE 17:16:33 10° SE daylight
16 Dec - 18:48:30 10° NW 18:52:59 24° WSW 18:57:13 10° SSW visible
17 Dec - 07:33:53 10° S 07:38:58 41° ESE 07:44:22 10° NE daylight
17 Dec - 09:16:14 10° WSW 09:21:11 32° NW 09:26:24 10° NNE daylight
17 Dec - 16:16:19 10° N 16:21:16 28° NE 16:25:58 10° ESE daylight
17 Dec - 17:58:07 10° NW 18:03:38 48° WSW 18:08:47 10° S visible
18 Dec - 06:45:42 10° SSE 06:49:40 21° ESE 06:53:49 10° ENE visible
18 Dec - 08:25:49 10° SW 08:31:14 57° WNW 08:37:03 10° NNE daylight
18 Dec - 10:12:36 10° WNW 10:14:43 12° NW 10:16:52 10° NNW daylight
18 Dec - 15:27:26 10° N 15:31:03 17° NE 15:34:34 10° E daylight
18 Dec - 17:08:15 10° NNW 17:14:05 87° ENE 17:19:30 10° SSE daylight
18 Dec - 18:53:13 10° W 18:55:14 12° W 18:57:12 10° WSW visible
19 Dec - 07:36:04 10° SSW 07:41:32 77° ESE 07:47:24 10° NNE daylight
19 Dec - 09:20:17 10° W 09:24:21 20° NW 09:28:34 10° N daylight
19 Dec - 16:18:42 10° NNW 16:24:18 46° NE 16:29:32 10° SE daylight
19 Dec - 18:01:29 10° NW 18:06:04 25° WSW 18:10:24 10° SSW visible
20 Dec - 06:47:01 10° S 06:52:03 39° ESE 06:57:24 10° NE visible
20 Dec - 08:29:10 10° WSW 08:34:12 33° NW 08:39:31 10° NNE daylight
20 Dec - 15:29:26 10° N 15:34:17 26° NE 15:38:53 10° ESE daylight
20 Dec - 17:11:09 10° NW 17:16:44 51° WSW 17:21:52 10° S daylight
21 Dec - 05:58:56 10° SSE 06:02:46 19° ESE 06:06:46 10° ENE visible
21 Dec - 07:38:49 10° SW 07:44:18 60° WNW 07:50:08 10° NNE daylight
21 Dec - 09:25:17 10° WNW 09:27:43 13° NW 09:30:09 10° NNW daylight
21 Dec - 14:40:37 10° N 14:44:03 16° NE 14:47:23 10° ENE daylight
21 Dec - 16:21:19 10° NNW 16:27:09 82° ENE 16:32:32 10° SSE daylight
21 Dec - 18:05:58 10° WNW 18:08:20 13° W 18:10:39 10° SW visible
